Temp
14 14 14 14 14 14 14 14 14 14 13 13 13 13 14 14 14 14 15 15 16 16 16 16 17 17 17 18 18 18 18 18 18 17 17 16 16 16 17 17 17 17 16 16 15 15 15 15 15 15 15 15 15 14 14 13 13 13 13 13 13 13 12 12 12 12 12 12 12
15 15 15 14 14 14 14 14 14 14 14 14 13 13 14 14 14 15 15 15 15 15 16 16 17 17 17 18 18 18 18 18 18 17 16 16 16 16 16 16 16 16 15 15 15 15 15 15 15 15 15 15 14 14 13 13 12 12 12 13 12 12 11 11 11 11 11 11 11
16 15 15 15 15 15 14 14 14 14 14 14 14 14 14 14 15 15 16 16 16 16 16 16 16 17 16 17 17 17 18 17 17 16 16 16 16 16 16 16 15 15 15 14 14 14 14 14 14 14 14 14 13 13 12 12 12 12 11 12 12 11 10 10 10 10 11 11 11
17 16 16 15 15 15 15 15 14 14 14 14 14 13 13 14 14 15 15 16 16 16 15 15 15 15 15 15 16 16 17 16 16 16 16 16 16 16 15 15 15 14 14 14 14 14 14 14 14 13 13 13 12 12 12 11 11 11 11 11 10 10 10 10 10 10 10 10 11
17 17 17 17 16 16 16 16 16 16 15 15 14 14 13 13 13 14 14 14 15 15 14 14 14 14 15 16 16 16 16 16 16 16 16 16 15 15 15 14 14 14 13 13 13 13 13 13 12 12 12 12 12 11 11 11 11 10 10 10 10 10 10 10 10 10 10 10 10
18 18 18 18 17 17 17 17 17 16 16 15 15 14 14 14 14 14 14 14 14 14 14 14 14 15 15 15 15 15 15 15 15 15 15 15 15 14 14 14 13 13 13 13 13 12 12 12 11 11 11 11 11 11 11 11 10 10 10 10 10 10 10 10 10 10 11 11 11
18 18 18 18 18 17 17 17 17 17 16 16 15 15 15 15 15 15 15 15 15 15 15 15 15 15 15 15 15 15 15 15 15 15 15 14 14 14 13 13 13 12 12 12 12 11 11 11 11 11 11 11 11 11 11 10 10 10 10 10 10 10 10 10 10 11 11 11 11
17 17 17 17 17 17 17 17 17 17 16 16 16 16 16 16 16 16 16 15 15 15 15 15 15 15 15 15 15 14 14 14 14 14 14 14 13 13 13 13 12 12 12 11 11 11 11 11 11 11 11 11 11 10 10 10 10 9 9 9 9 9 9 10 10 10 10 11 11
17 17 17 17 17 17 17 17 17 17 16 16 16 16 16 16 16 16 16 15 15 15 15 15 14 14 14 14 14 14 14 14 14 13 13 13 13 13 12 12 11 11 11 10 10 10 10 10 10 10 10 10 10 10 10 9 9 8 8 8 8 8 8 9 9 9 9 10 10
16 16 16 16 16 17 17 17 17 17 17 17 16 16 16 16 16 16 16 15 15 15 14 14 14 14 14 14 14 13 13 13 13 13 13 12 12 12 11 11 11 10 10 10 10 10 10 10 10 10 10 10 10 9 9 8 8 8 7 7 7 8 8 8 9 9 9 9 9
16 16 16 16 16 16 16 16 16 16 16 16 16 16 16 16 16 16 15 15 15 14 14 14 14 14 13 13 13 13 13 13 13 12 12 12 11 11 11 10 10 10 10 9 9 9 9 10 10 10 10 9 9 9 9 8 8 8 8 7 7 7 8 8 8 8 9 9 9
16 15 16 16 16 16 16 16 16 16 16 16 16 16 16 16 16 16 15 15 14 14 14 14 13 13 13 13 13 13 12 12 12 12 11 11 11 10 10 10 9 9 9 9 9 9 9 9 9 9 9 9 9 9 8 8 8 8 8 8 7 7 7 7 8 8 8 8 9
15 15 15 15 15 15 15 15 15 15 15 15 15 15 15 15 15 15 15 14 14 14 13 13 13 13 13 13 12 12 12 12 11 11 11 10 10 10 9 9 9 9 9 9 9 9 9 9 9 9 9 8 8 8 8 8 8 8 8 7 7 7 7 7 7 7 7 8 8
14 14 14 14 14 14 14 14 14 15 15 14 14 14 14 14 14 14 14 14 14 13 13 13 13 13 13 12 12 12 11 11 10 10 10 9 9 9 9 9 9 9 9 9 9 9 9 8 8 8 8 8 8 7 7 7 7 7 7 7 7 6 6 6 6 6 6 7 7
14 14 14 14 14 14 14 14 14 14 14 14 14 13 13 14 14 14 14 13 13 13 13 13 13 12 12 12 12 11 11 10 10 9 9 9 9 9 8 8 8 8 8 8 8 8 8 8 8 8 7 7 7 6 6 6 6 6 6 6 6 6 6 6 5 5 6 6 6
13 13 14 14 13 14 14 14 14 14 13 13 13 13 13 13 13 13 13 13 13 13 13 12 12 12 11 11 10 10 10 9 9 9 8 8 8 8 8 8 8 8 8 8 8 8 8 8 7 7 6 6 6 5 5 5 5 5 5 5 5 5 5 5 5 5 5 5 6
13 13 13 13 13 13 13 13 13 13 13 13 13 13 13 13 13 13 13 13 12 12 12 12 11 11 10 10 10 9 9 9 8 8 8 8 8 8 8 8 8 8 7 7 7 7 7 7 7 7 6 6 5 5 5 5 5 5 5 5 5 5 5 5 5 5 5 5 5
13 13 13 13 13 13 13 13 13 13 13 13 13 13 13 13 13 13 12 12 12 12 11 11 10 10 9 9 9 9 8 8 8 8 8 8 8 8 7 7 7 7 7 7 7 7 7 7 7 6 6 5 5 5 5 5 5 4 4 4 4 4 4 4 5 5 5 5 5
13 13 13 13 13 13 13 13 13 13 13 13 13 13 13 13 13 12 12 12 11 11 10 10 9 9 9 9 8 8 8 8 7 7 7 7 7 7 7 7 7 7 7 7 7 7 7 7 6 6 6 5 5 5 5 5 4 4 4 4 4 4 4 4 5 5 5 5 5
13 13 12 12 12 13 13 13 13 13 13 13 13 13 13 12 12 12 12 11 11 10 10 9 9 9 8 8 8 8 8 7 7 7 7 7 7 7 7 7 7 7 7 7 6 6 6 6 6 6 5 5 5 5 4 4 4 4 4 4 4 4 4 4 4 4 5 5 6
13 13 13 13 13 13 13 13 13 13 13 12 12 12 12 12 12 11 11 10 10 9 9 9 8 8 8 8 8 7 7 7 7 7 7 7 7 7 7 7 7 7 6 6 6 6 6 5 5 5 5 5 4 4 4 4 4 4 4 4 4 4 4 4 4 4 5 5 5
12 12 12 13 13 13 13 13 12 12 12 12 12 12 12 12 11 11 10 10 9 9 9 8 8 8 7 7 7 7 7 7 7 7 7 7 7 7 6 6 6 6 6 6 6 6 5 5 5 4 4 4 4 4 3 3 4 4 4 4 4 4 4 4 4 4 4 5 5
12 12 12 12 12 12 12 12 12 12 12 12 12 12 11 11 11 10 10 9 9 9 8 8 7 7 7 7 7 7 7 7 7 6 6 6 6 6 6 6 6 6 6 6 5 5 5 5 4 4 4 4 3 3 3 3 4 4 4 4 4 4 4 4 4 4 4 4 4
12 12 12 12 12 12 12 12 12 11 11 11 11 11 11 11 10 10 9 9 9 8 8 7 7 6 6 6 6 6 6 6 6 6 6 6 6 6 6 6 6 6 5 5 5 5 5 5 4 4 4 3 3 3 3 3 3 3 4 4 4 4 4 4 4 4 4 4 4
11 11 11 12 12 12 11 11 11 11 11 11 11 11 11 10 10 9 9 9 8 8 8 7 6 6 6 6 6 6 6 6 6 6 6 6 6 6 6 6 5 5 5 5 5 5 4 4 4 3 3 3 3 3 3 3 3 3 3 4 4 4 4 4 4 4 4 4 4
11 11 11 11 11 11 11 11 11 11 11 11 11 10 10 10 10 9 9 8 8 8 7 7 6 6 5 6 6 6 6 6 6 6 6 6 6 5 5 5 5 5 5 5 4 4 4 3 3 3 3 3 3 3 3 3 3 3 3 4 4 4 4 4 4 3 4 4 4
11 11 11 11 11 11 11 11 11 11 11 10 10 10 10 10 9 9 9 8 8 8 7 7 6 5 5 6 6 6 6 6 5 5 5 5 5 5 5 5 5 5 4 4 4 4 3 3 3 3 3 3 3 3 3 3 3 3 3 3 4 4 4 4 4 4 4 4 4
11 11 11 11 10 10 10 10 10 10 10 10 10 10 10 9 9 9 8 8 8 7 7 6 6 5 5 5 5 5 5 5 5 5 5 5 5 4 4 4 4 4 4 4 4 3 3 3 3 3 3 3 3 3 3 3 3 3 3 3 4 4 4 4 3 3 3 3 3
10 10 10 10 10 10 10 10 10 10 10 10 10 9 9 9 8 8 8 8 7 7 7 6 6 5 5 5 5 5 5 5 5 5 5 4 4 4 4 4 4 4 3 3 3 3 3 3 2 2 2 3 3 3 3 3 3 3 3 3 3 3 3 3 3 3 3 3 3
10 10 10 10 10 10 10 10 10 10 10 9 9 9 9 8 8 8 8 8 7 7 7 6 5 5 5 5 5 5 5 5 5 5 4 4 4 4 4 4 3 3 3 3 3 3 2 2 2 2 2 3 3 3 3 3 3 3 3 3 3 3 3 3 3 3 3 3 3
10 10 10 10 10 10 10 10 10 10 9 9 9 8 8 8 8 8 8 7 7 7 6 5 5 5 4 4 5 5 4 4 4 4 4 4 4 3 3 3 3 3 3 3 2 2 2 2 2 2 2 2 3 3 3 3 3 3 3 3 3 3 3 3 3 3 3 3 3
10 9 9 9 9 10 10 10 9 9 9 9 8 8 8 8 8 8 8 7 7 6 6 5 5 4 4 4 4 4 4 4 4 4 4 3 3 3 3 3 3 3 2 2 2 2 2 2 2 2 2 2 3 3 3 3 3 3 3 3 3 3 3 3 3 3 3 3 3
9 9 9 9 9 9 9 9 9 9 9 8 8 8 8 8 8 7 7 7 6 6 6 5 5 4 4 4 4 4 4 4 4 3 3 3 3 3 3 3 3 3 2 2 2 2 2 2 2 2 2 3 3 3 3 3 3 3 3 3 3 3 3 2 2 2 2 2 2
9 9 9 9 9 9 9 9 9 9 8 8 8 8 7 7 7 7 7 6 6 6 5 5 5 4 4 4 4 4 4 3 3 3 3 3 3 2 2 3 3 2 2 2 2 2 2 2 2 2 2 3 3 3 3 3 3 3 3 3 3 3 2 2 2 2 2 2 2
8 8 8 9 9 9 8 8 8 8 8 8 7 7 7 7 7 7 6 6 6 5 5 5 4 4 4 4 3 3 3 3 3 3 3 2 2 2 2 2 2 2 2 2 2 2 2 2 2 3 3 3 3 3 3 3 3 3 3 3 3 2 2 2 2 2 2 2 2
8 8 8 8 8 8 8 8 8 7 7 7 7 7 7 7 6 6 6 6 5 5 5 4 4 4 3 3 3 3 3 3 3 3 2 2 2 2 2 2 2 2 2 2 2 2 2 2 3 3 3 3 3 3 3 3 3 3 3 3 2 2 2 2 2 2 2 2 1
8 8 8 8 8 7 7 7 7 7 7 7 7 7 7 6 6 6 6 5 5 5 5 4 4 4 3 3 3 3 3 2 2 2 2 2 2 2 2 2 2 2 2 2 2 2 3 3 3 3 3 3 3 3 3 3 3 2 2 2 2 2 2 2 2 2 1 1 1
7 7 7 7 7 7 7 7 6 6 6 7 6 6 6 6 6 5 5 5 5 5 4 4 4 4 3 3 3 3 2 2 2 2 2 2 2 2 2 2 2 2 2 2 2 2 3 3 3 3 3 3 3 3 3 2 2 2 2 2 2 2 2 2 2 1 1 1 1
7 7 7 7 6 6 6 6 6 6 6 6 6 6 6 6 5 5 5 5 5 5 4 4 4 4 3 3 3 2 2 2 2 2 2 2 2 2 2 2 2 2 2 2 2 2 2 2 3 3 3 3 2 2 2 2 2 2 2 2 2 2 2 2 1 1 1 1 1
6 6 6 6 6 6 6 6 6 6 6 6 6 5 5 5 5 5 5 5 4 4 4 4 4 3 3 3 2 2 2 2 1 1 1 2 2 2 2 2 2 2 2 2 2 2 2 2 2 2 2 2 2 2 2 2 2 2 2 2 2 2 2 1 1 1 1 1 1
6 6 6 6 6 6 6 5 5 6 6 5 5 5 5 5 5 4 4 4 4 4 4 4 3 3 3 3 2 2 2 2 2 1 1 2 2 2 2 2 2 2 2 2 2 2 2 2 2 2 2 2 2 2 2 2 1 1 1 1 2 2 1 1 1 1 1 1 1
Height
795 794 794 794 795 797 798 801 803 804 804 804 803 803 803 804 805 805 805 805 805 805 805 805 805 804 803 803 803 803 804 804 805 806 807 807 807 807 806 806 806 807 807 807 807 808 808 808 808 808 808 808 808 808 808 808 808 808 807 807 807 807 807 806 806 806 806 806 806
792 792 792 793 794 797 800 803 804 805 805 804 804 803 803 804 804 804 804 805 805 805 806 806 805 804 803 802 802 802 802 803 803 804 805 805 805 805 805 805 805 806 806 806 806 807 807 806 806 806 806 807 807 807 807 807 807 806 806 806 806 806 805 805 805 805 805 805 805
789 789 790 792 793 795 799 802 804 805 805 804 802 802 802 803 803 803 802 803 803 805 805 806 805 804 803 803 802 802 801 801 802 802 803 803 804 804 804 804 805 805 805 805 806 805 805 805 805 805 805 805 806 806 806 806 805 805 805 805 805 805 805 805 804 804 804 804 804
787 788 789 790 791 793 795 797 799 800 800 800 801 801 801 801 802 802 802 802 803 804 805 805 805 804 803 802 801 801 800 800 800 801 801 802 802 802 803 803 804 804 804 805 805 805 804 804 804 804 804 804 805 805 805 804 804 804 804 804 804 804 804 804 803 803 803 803 802
786 786 787 788 789 790 791 793 794 795 796 797 798 799 800 800 800 801 802 802 803 804 805 805 805 803 801 800 799 799 799 799 800 800 800 800 801 801 802 802 803 803 803 803 803 803 803 803 803 803 803 804 804 804 803 803 803 803 803 803 803 803 803 803 802 802 802 801 801
785 785 786 787 787 788 789 790 791 792 793 795 795 796 797 797 798 800 801 801 803 804 805 804 802 800 799 798 798 798 798 798 799 799 799 800 800 800 800 801 801 802 802 802 802 802 802 803 803 803 803 803 802 802 802 802 802 802 802 803 803 802 802 802 801 801 801 800 800
784 785 785 785 786 786 787 788 789 790 791 793 794 795 796 797 797 798 799 800 801 801 801 800 799 798 797 797 797 797 797 798 798 798 798 798 799 799 800 800 800 801 801 801 801 801 802 802 802 802 802 802 801 801 801 801 801 801 802 802 802 802 801 801 801 800 800 799 799
784 784 784 784 785 785 785 786 787 788 789 790 791 793 794 795 796 797 798 798 798 798 798 797 796 796 796 796 796 797 797 797 797 797 797 797 798 798 799 799 799 800 800 800 800 801 801 801 801 801 801 801 800 800 800 801 801 801 801 801 801 801 801 800 800 800 799 798 798
784 784 784 784 784 784 784 785 785 786 787 788 789 790 791 793 794 795 795 796 796 796 795 795 795 795 795 795 796 796 796 796 796 796 796 796 797 797 798 798 799 799 799 800 800 800 800 800 800 800 800 800 800 800 800 800 800 800 800 801 800 800 800 800 799 799 798 798 797
784 784 784 784 784 784 784 784 784 785 785 786 787 787 788 789 790 792 793 794 794 794 794 794 794 794 794 795 795 795 795 795 795 795 796 796 796 796 797 797 798 798 799 799 799 800 800 800 800 799 799 799 799 799 800 800 800 800 800 800 800 800 799 799 798 798 797 797 796
784 784 784 784 784 784 783 783 783 783 783 784 784 785 785 786 787 788 790 791 792 793 793 793 793 793 793 794 794 794 794 795 795 795 795 795 795 796 796 796 797 797 798 798 799 799 799 799 798 798 798 798 799 799 799 799 800 800 800 799 799 799 798 798 798 797 797 796 796
784 784 784 784 784 784 784 783 782 782 782 782 782 782 783 783 784 785 787 789 790 791 791 792 792 792 793 793 793 793 794 794 795 795 795 795 795 795 795 796 796 797 797 797 798 798 798 797 797 797 797 798 798 798 799 799 799 799 799 799 798 798 797 797 797 797 796 796 795
784 784 784 784 784 784 784 783 783 782 781 781 780 780 781 781 782 783 785 787 788 790 790 791 791 791 792 792 792 793 793 794 794 795 795 794 794 794 795 795 795 796 796 796 797 797 797 796 796 796 797 797 797 798 798 798 799 799 798 798 797 797 797 796 796 796 796 795 795
782 783 783 783 783 783 783 783 783 783 782 782 781 780 780 780 780 781 783 785 787 788 789 789 790 790 791 791 792 792 793 793 794 794 794 794 794 794 794 794 795 795 795 795 796 796 795 795 795 796 796 796 797 797 798 798 798 798 797 797 797 796 796 796 795 795 795 795 795
781 781 782 782 782 783 783 783 783 783 783 783 782 782 780 779 778 780 782 784 785 786 787 788 789 789 790 790 791 791 792 793 793 793 793 793 793 793 793 793 794 794 795 795 795 795 795 795 795 795 795 796 796 797 797 797 797 797 796 796 796 796 795 795 795 795 795 795 794
780 780 781 781 782 782 782 782 782 782 783 783 783 782 780 778 778 779 781 783 784 785 786 787 788 788 789 790 790 791 791 792 792 792 792 792 792 792 793 793 793 793 793 794 794 794 794 794 794 795 795 795 795 796 796 796 796 796 795 795 795 795 795 795 795 794 794 794 794
779 779 780 780 780 781 781 781 782 782 782 782 782 780 779 778 778 779 781 782 783 784 785 786 787 788 788 789 789 790 790 791 791 791 791 792 792 792 792 792 792 792 792 792 793 793 793 793 794 794 794 795 795 795 795 795 795 795 795 795 795 794 794 794 794 794 794 794 793
778 778 779 779 779 780 780 780 780 781 781 781 780 779 778 777 778 779 780 782 783 784 785 786 786 787 788 788 789 789 790 790 790 791 791 791 791 791 791 791 791 791 791 791 792 792 792 793 793 793 794 794 794 794 794 794 794 794 794 794 794 794 794 794 793 793 793 793 793
777 777 777 778 778 778 779 779 780 780 780 779 779 778 777 777 778 779 780 781 783 784 785 785 786 787 787 788 788 789 789 789 790 790 790 790 790 790 790 790 790 790 791 791 791 791 792 792 792 793 793 793 793 793 793 793 793 793 793 793 793 793 793 793 793 793 793 793 792
776 776 776 776 777 777 778 778 778 778 778 778 778 777 777 778 778 779 780 781 782 783 784 785 785 786 786 787 787 788 788 789 789 789 790 790 790 790 790 790 790 790 790 790 790 790 791 791 792 792 792 792 792 793 793 793 793 792 792 792 792 792 792 792 792 792 792 792 792
775 775 775 775 776 776 777 777 777 777 777 777 777 777 777 778 779 779 780 781 782 783 784 784 785 785 786 786 787 787 788 788 788 789 789 789 789 789 789 789 789 789 789 789 790 790 790 790 791 791 791 791 791 792 792 792 792 792 792 792 791 791 791 791 791 791 791 791 791
774 774 774 775 775 775 776 776 776 776 776 776 776 777 777 778 778 779 780 781 781 782 783 783 784 784 785 785 786 786 787 787 788 788 788 788 788 788 788 788 788 788 789 789 789 789 790 790 790 790 790 790 790 791 791 791 791 791 790 790 790 790 790 790 790 790 790 790 790
772 773 773 774 774 775 775 775 775 775 775 776 776 776 777 778 778 779 780 780 781 781 782 782 783 784 784 785 785 786 786 786 787 787 787 787 787 787 787 787 787 788 788 788 788 789 789 789 789 789 790 790 790 790 790 790 790 790 789 789 789 789 789 789 789 789 789 789 789
771 772 772 773 773 773 774 774 774 775 775 775 775 776 776 777 778 778 779 779 780 780 781 781 782 783 783 784 784 785 785 785 786 786 786 786 786 786 786 786 786 787 787 787 788 788 788 788 788 788 788 788 788 788 788 788 788 788 788 788 788 788 788 788 788 788 788 788 788
770 771 771 772 772 772 773 773 773 774 774 775 775 775 776 776 777 777 778 779 779 780 780 781 781 782 782 783 783 784 784 785 785 785 785 785 785 785 785 785 785 786 786 786 787 787 787 787 788 787 787 787 787 787 787 787 787 787 787 787 787 787 787 787 787 788 788 788 788
770 770 770 771 771 771 772 772 772 773 773 774 774 775 775 775 776 777 777 778 778 779 779 780 780 781 781 782 782 783 783 784 784 784 784 784 784 784 784 785 785 785 785 785 786 786 786 787 787 787 786 786 786 785 785 785 785 785 785 786 786 786 786 786 786 787 787 787 787
769 769 769 770 770 770 770 771 771 772 772 773 773 774 774 775 775 776 776 777 777 778 779 779 779 780 780 781 781 782 782 782 783 783 783 783 783 783 783 784 784 784 785 785 785 785 785 785 785 785 785 785 785 784 784 784 784 784 785 785 785 785 785 785 786 786 786 786 786
767 767 768 768 769 769 770 770 770 771 771 772 772 773 774 774 775 775 775 776 776 777 777 778 778 779 780 780 780 780 781 781 781 782 782 782 782 782 782 783 783 783 783 784 783 784 784 784 784 784 784 784 783 783 783 783 784 784 784 784 784 785 785 785 785 785 785 785 785
765 766 766 767 767 768 769 769 770 770 770 771 772 772 773 773 774 774 775 775 775 776 776 777 777 778 778 779 779 780 780 780 780 781 781 781 781 781 781 782 782 782 782 782 782 782 782 782 782 782 782 782 782 782 782 782 783 783 783 783 784 784 784 784 784 785 785 785 785
764 765 765 765 766 767 767 768 768 769 770 770 770 771 772 772 772 773 773 774 774 775 775 776 776 777 777 778 778 779 779 779 779 780 780 780 780 780 780 781 781 781 781 781 781 781 781 781 781 781 781 781 781 781 781 781 781 782 782 783 783 783 783 783 784 784 784 784 785
763 763 764 764 765 765 766 766 767 768 768 769 770 770 770 771 771 771 772 772 773 774 774 775 775 776 776 777 777 778 778 778 778 779 779 779 779 780 780 780 780 780 780 780 780 780 780 780 780 780 780 780 780 780 780 780 781 781 781 782 782 782 782 783 783 783 783 784 784
761 762 762 763 763 764 765 765 766 767 767 768 768 769 769 770 770 770 771 771 772 772 773 773 774 775 775 776 776 776 777 777 777 777 778 778 778 778 779 779 779 779 779 779 779 779 779 779 779 779 779 779 780 780 780 780 780 780 781 781 781 781 782 782 782 783 783 783 784
760 761 761 762 762 763 763 764 765 765 766 766 767 767 768 768 769 769 770 770 771 771 771 772 773 773 774 775 775 775 776 776 776 777 777 777 777 777 778 778 778 778 778 778 778 778 778 778 778 778 778 779 779 779 779 779 780 780 780 780 781 781 781 781 782 782 783 783 784
759 759 760 760 761 761 762 763 763 764 765 765 765 766 766 767 767 768 768 769 770 770 770 771 771 772 773 773 774 775 775 775 775 776 776 776 776 776 777 777 777 777 778 777 777 777 777 777 777 777 778 778 778 778 778 779 779 779 780 780 780 780 781 781 782 782 783 783 783
758 758 759 759 760 760 761 761 762 763 763 764 764 765 765 765 766 766 767 768 768 769 770 770 770 771 772 772 773 773 774 774 774 775 775 775 775 775 776 776 776 777 777 777 776 776 776 776 777 777 777 777 777 777 778 778 778 779 779 779 780 780 780 781 781 782 782 783 783
756 757 757 758 758 759 760 760 761 761 762 762 763 763 764 764 765 765 766 767 768 768 769 769 770 770 770 771 771 772 772 773 773 774 774 774 775 775 775 775 775 776 776 776 776 775 776 776 776 776 776 776 776 777 777 778 778 778 779 779 779 780 780 781 781 782 782 783 783
755 755 756 757 757 758 758 759 760 760 760 761 761 762 762 763 764 765 765 766 766 767 767 768 768 769 769 770 770 771 771 772 772 773 773 773 774 774 774 775 775 775 775 775 775 775 775 775 775 775 775 776 776 776 777 777 778 778 778 778 779 780 780 780 781 781 782 782 783
754 754 755 755 756 757 757 758 758 759 759 759 760 760 761 762 763 764 764 765 765 766 766 766 767 767 768 769 769 770 770 771 771 771 772 772 773 773 773 774 774 774 775 775 775 775 775 775 775 775 775 775 776 776 776 777 777 777 778 778 779 779 780 780 781 781 782 782 783
753 754 754 755 755 756 756 757 757 757 758 759 759 760 760 761 762 762 763 764 764 765 765 765 766 766 767 768 769 769 769 770 770 770 771 771 772 772 773 773 773 773 774 774 774 774 774 774 774 774 775 775 775 775 776 776 776 777 777 778 778 779 779 780 780 781 781 782 783
752 753 753 754 755 755 755 756 756 757 757 758 759 759 760 760 761 761 762 763 763 764 764 765 765 765 766 767 767 768 768 769 769 770 770 770 770 771 771 772 772 772 773 773 774 774 773 773 773 774 774 775 775 775 775 775 776 776 776 777 777 778 779 779 780 780 781 781 782
752 752 753 753 754 754 755 755 755 756 757 757 758 758 759 760 760 761 761 761 762 763 763 764 764 765 765 766 766 766 767 767 768 768 769 769 770 770 770 771 771 771 772 772 773 773 773 773 773 773 773 774 774 774 775 775 775 775 776 776 777 777 778 779 779 780 780 781 782
Wind_Speed
22 22 21 19 17 16 17 20 21 22 23 22 21 20 21 23 25 26 26 25 24 23 22 22 22 21 19 18 17 16 15 16 17 18 18 18 17 16 16 16 17 17 17 17 18 18 18 19 19 19 19 18 17 16 15 14 14 14 14 15 15 16 17 17 17 18 17 17 18
21 22 20 17 14 12 12 13 17 22 25 24 23 22 23 25 27 28 27 26 24 23 22 20 19 18 17 16 16 16 17 17 18 18 17 17 16 16 17 17 17 17 17 17 18 18 18 19 19 18 18 17 15 14 13 13 14 14 15 16 17 17 17 17 17 17 17 17 17
20 21 21 20 17 16 15 15 17 20 22 23 22 21 21 23 25 26 26 25 23 21 20 18 17 17 17 17 18 18 18 18 18 17 17 17 17 17 17 17 17 17 17 18 18 18 18 18 18 17 16 15 14 13 13 14 15 16 16 17 17 17 17 17 17 17 17 17 16
20 21 22 23 23 22 21 23 22 23 24 25 23 20 19 20 21 22 22 22 21 20 20 20 20 20 20 21 20 19 18 17 17 17 17 17 17 17 17 17 17 17 17 18 18 18 18 17 16 15 14 13 13 14 14 15 16 16 17 17 17 16 16 17 17 17 17 17 16
21 22 23 24 24 24 24 24 25 26 26 25 25 23 21 20 20 21 21 21 21 22 23 23 23 22 21 20 18 17 16 16 16 16 17 17 17 17 17 17 17 17 17 17 17 17 16 15 14 13 13 13 14 15 15 16 17 17 16 16 15 15 16 17 17 17 17 17 16
21 21 22 22 21 21 20 21 22 24 25 26 25 24 23 23 23 23 24 23 23 24 23 22 21 20 18 17 16 16 16 16 16 16 16 16 16 16 16 17 17 17 17 17 16 15 14 13 12 12 12 13 14 15 15 16 16 16 15 15 15 15 16 17 18 18 17 16 15
21 21 21 20 19 19 18 18 18 19 21 22 23 23 22 22 22 22 22 21 21 20 19 18 17 16 16 15 15 16 16 16 16 16 16 16 16 16 16 16 17 16 16 15 15 14 13 12 12 12 12 13 13 14 14 15 15 15 15 14 15 15 15 16 17 17 16 15 15
20 20 20 20 19 18 18 17 17 17 19 20 20 20 20 19 18 17 17 16 16 16 15 15 14 14 14 15 15 15 15 16 16 16 16 16 16 16 17 16 16 15 15 14 13 12 12 12 12 11 12 12 12 13 14 14 14 14 14 14 14 14 15 16 17 16 15 14 14
20 20 20 20 20 19 19 18 18 18 19 19 19 19 18 18 17 16 16 15 15 15 15 14 14 14 14 14 15 15 15 16 16 16 16 17 17 17 16 16 15 14 13 13 12 12 11 11 11 11 11 11 12 12 13 14 13 13 12 12 13 13 14 15 15 14 13 12 12
21 21 21 21 21 21 20 20 19 19 19 19 19 19 18 18 17 17 16 16 16 16 15 15 15 15 15 15 15 15 16 16 16 17 17 17 17 16 15 15 13 12 12 12 11 11 11 11 11 11 11 11 11 11 12 12 12 11 11 11 12 12 12 13 12 12 11 11 11
23 23 23 23 23 22 22 22 21 21 21 21 20 20 20 19 19 18 18 18 17 16 16 15 15 15 15 15 15 16 16 17 17 18 17 17 16 15 14 12 11 11 11 11 11 11 11 10 10 11 11 12 12 11 11 11 10 10 11 11 11 11 11 11 11 10 10 10 10
24 24 24 24 23 23 23 23 23 23 22 22 22 21 21 20 19 19 19 18 17 17 16 16 15 15 15 15 16 16 17 17 18 18 17 16 14 13 12 11 10 10 11 11 11 11 11 10 10 10 11 11 12 11 11 11 10 10 11 11 11 11 10 10 10 9 9 9 9
24 24 24 24 24 23 23 23 23 23 22 22 22 21 21 20 19 18 18 18 17 17 16 16 16 16 16 16 16 17 17 17 17 16 15 13 12 11 11 11 10 10 11 11 11 11 10 10 10 10 10 11 11 11 11 11 11 12 12 12 12 11 10 9 9 9 9 8 8
24 24 24 24 24 23 23 22 22 21 21 20 20 20 20 19 18 17 16 16 16 16 15 15 15 16 16 16 16 16 16 15 14 13 12 12 11 11 11 11 11 11 11 11 10 10 10 10 10 10 11 11 11 11 12 12 13 13 13 13 13 12 10 9 9 9 9 9 8
24 24 24 23 23 23 22 22 21 20 20 19 19 18 17 16 15 15 15 15 15 15 15 15 15 15 15 15 15 15 14 13 13 12 12 12 11 11 11 11 11 11 11 10 10 10 9 9 9 10 10 11 11 11 12 12 13 13 13 13 13 12 12 10 10 10 9 9 9
24 24 24 23 23 22 22 22 21 20 20 19 18 17 15 13 13 13 13 14 14 14 14 14 14 14 14 14 13 13 13 12 12 12 12 12 12 12 12 12 12 11 11 10 9 9 9 9 9 9 10 10 10 10 11 11 12 12 13 13 13 13 12 12 11 10 9 9 9
24 24 24 23 23 23 22 22 21 20 19 18 17 15 13 12 12 12 12 13 13 13 13 13 13 13 12 12 12 12 13 13 13 13 12 12 12 12 12 12 12 11 10 10 9 9 9 9 9 9 9 10 10 10 11 11 12 13 14 14 14 14 13 12 11 10 10 10 9
24 24 24 24 23 23 23 22 21 20 18 17 15 14 12 12 11 12 12 12 12 12 12 12 12 11 11 12 12 13 13 13 13 13 13 12 12 12 12 12 12 11 10 10 10 10 10 10 10 10 10 10 10 11 12 12 14 14 15 15 15 14 13 12 10 9 9 10 9
24 24 24 24 24 24 23 22 21 19 18 16 15 13 12 12 12 12 12 12 12 11 11 11 11 11 12 12 13 13 14 14 13 13 13 12 12 12 12 12 12 11 11 10 10 10 11 11 12 11 11 11 11 12 13 14 15 16 17 16 15 14 13 12 10 9 9 9 9
25 25 25 25 24 24 23 22 21 19 18 16 15 14 13 12 12 12 11 11 11 11 11 11 11 12 12 13 13 14 14 13 13 12 12 12 12 12 12 12 12 12 11 11 11 11 11 11 12 12 12 12 13 14 15 16 17 18 18 17 15 14 13 11 10 9 9 9 9
25 26 26 26 25 24 24 23 21 19 18 16 15 14 13 12 12 11 11 11 10 10 11 11 12 12 13 13 13 13 13 13 12 12 12 11 11 11 11 12 12 12 12 12 12 11 11 11 12 13 13 15 16 17 18 19 19 19 18 17 15 14 12 12 10 10 9 9 9
26 26 27 26 26 25 24 23 21 19 18 16 15 14 13 13 12 11 11 10 10 11 11 11 12 12 13 13 13 13 13 12 12 12 12 11 11 11 11 12 12 12 13 13 13 13 13 13 14 15 17 18 20 20 21 21 21 20 18 16 15 14 13 12 11 10 10 10 10
26 27 27 27 26 25 24 22 21 19 18 16 15 15 14 13 12 12 11 11 11 11 12 12 12 12 13 13 13 12 12 12 12 12 12 12 12 12 12 13 13 14 14 14 14 15 15 16 17 19 20 21 22 22 22 22 20 19 17 16 15 14 13 12 11 10 10 10 11
27 27 27 27 26 25 24 22 21 19 18 17 16 15 15 14 13 13 12 12 12 12 12 12 12 12 12 12 12 12 12 13 13 13 13 12 12 12 13 13 14 15 15 16 16 16 17 18 19 21 22 22 22 22 21 20 19 17 16 15 15 14 14 13 12 11 11 11 11
26 27 27 27 27 25 24 23 21 20 19 18 17 16 15 15 14 14 13 13 13 13 13 13 13 12 12 12 13 13 13 13 13 13 13 13 12 13 13 14 14 15 16 16 17 17 18 19 19 20 20 21 20 20 19 18 16 15 14 15 15 15 14 13 12 12 11 11 11
26 26 27 28 27 26 25 23 22 21 20 19 18 17 16 16 15 14 14 14 13 13 13 13 12 12 13 13 13 13 13 13 13 13 13 13 13 13 14 15 16 16 17 17 18 18 19 19 19 18 19 19 19 19 18 16 14 13 14 15 15 15 14 13 12 12 12 12 12
25 26 27 28 27 26 25 24 23 22 21 19 18 18 17 16 16 15 15 14 14 13 12 12 12 12 13 14 14 13 13 13 13 13 13 12 13 14 15 16 16 17 17 18 19 20 20 20 19 18 18 18 18 17 16 14 13 13 14 15 15 15 14 13 13 13 13 13 12
26 26 27 28 27 27 26 25 23 22 21 20 19 18 18 17 16 15 15 15 14 13 12 11 11 12 13 14 14 14 14 14 14 13 13 13 13 14 15 15 16 16 17 18 19 20 20 20 19 18 16 15 15 16 15 13 11 12 12 14 14 14 14 14 14 14 14 13 12
26 27 27 28 28 27 26 25 24 23 22 21 20 19 18 17 17 16 16 15 15 14 12 11 11 11 13 14 14 15 15 15 15 15 15 15 15 15 16 16 17 18 18 18 18 18 18 18 16 15 13 13 14 14 14 13 11 11 11 12 13 13 14 14 14 13 13 13 12
27 27 27 28 28 28 27 26 25 24 22 21 20 19 18 18 17 17 17 16 16 14 13 11 11 11 13 14 15 15 15 16 16 17 17 17 17 17 18 18 18 18 18 17 17 16 15 14 13 13 12 12 12 13 13 13 12 11 11 11 12 13 13 13 13 13 13 12 11
27 27 27 28 28 28 28 27 25 24 23 21 20 20 19 19 19 18 18 17 16 14 13 12 11 12 13 14 15 15 16 16 17 17 17 18 18 18 18 17 17 16 15 14 13 13 12 12 12 12 11 11 11 12 12 12 11 11 10 10 11 12 12 13 13 13 12 11 10
27 27 27 28 28 28 28 27 26 24 23 22 21 21 20 20 20 19 18 17 16 15 14 13 13 13 14 15 16 16 16 17 17 17 17 17 16 16 16 15 14 12 11 11 10 11 11 11 11 11 11 11 10 11 11 11 10 10 9 9 10 11 12 13 13 12 11 10 9
27 27 27 28 29 28 28 27 26 25 24 23 22 22 21 21 20 19 18 17 16 16 15 15 15 15 15 16 17 17 17 17 17 16 16 15 15 14 14 13 11 9 8 9 9 10 10 11 11 10 10 10 10 11 10 10 10 9 8 8 9 10 12 13 12 11 9 8 7
27 28 28 28 29 28 28 27 26 25 24 24 23 23 22 22 21 20 19 19 18 17 16 16 15 15 15 16 16 16 16 16 16 15 14 14 13 13 13 12 10 8 8 9 9 10 10 10 9 9 9 9 10 10 10 10 10 9 8 8 9 10 11 11 10 9 8 7 6
27 28 28 28 28 28 28 27 26 25 25 24 24 24 23 23 22 22 21 20 19 18 17 17 16 15 15 15 15 15 15 14 14 13 13 12 12 12 12 12 10 9 8 9 9 9 8 8 8 8 9 10 10 10 10 10 9 8 8 8 9 10 10 10 9 8 7 6 6
27 28 28 28 28 28 27 26 26 25 25 25 25 25 24 24 23 22 21 20 19 18 18 18 17 16 16 15 15 15 14 14 13 12 12 11 11 11 12 12 11 10 9 8 8 7 7 7 7 8 9 10 10 10 10 9 8 8 7 8 9 9 9 9 8 7 6 5 6
27 27 27 27 27 27 27 26 26 26 26 26 26 26 25 25 24 23 22 21 20 19 19 18 17 17 16 16 15 15 14 14 13 12 11 11 11 12 12 12 11 10 8 8 7 6 6 7 8 9 10 9 9 9 9 8 8 7 7 8 8 9 9 9 8 7 6 6 7
26 26 26 26 26 26 26 26 26 26 26 26 26 26 25 25 24 23 23 22 21 20 19 19 18 17 16 16 15 15 14 14 13 12 12 12 12 12 12 12 11 9 8 6 6 6 7 8 9 9 9 8 8 8 8 7 7 7 8 8 9 9 10 10 9 8 7 7 8
25 25 25 24 25 24 24 24 25 25 25 25 25 25 24 24 23 23 23 22 21 20 20 19 18 17 16 16 15 15 15 14 13 12 12 13 12 12 12 12 10 9 7 6 6 7 8 9 9 8 8 8 8 7 7 7 7 8 9 9 10 11 11 11 10 9 8 8 9
23 23 23 23 23 23 23 23 23 24 24 24 24 24 24 24 23 23 23 22 21 20 19 18 18 17 16 16 16 16 15 14 14 13 13 13 12 12 12 11 10 9 7 7 7 8 8 8 8 8 8 8 8 8 8 8 8 9 10 10 11 12 12 11 10 9 9 9 9
21 21 21 21 21 22 22 22 22 23 23 23 24 24 24 24 23 23 23 23 22 21 20 18 17 16 16 16 17 17 16 15 15 14 14 13 12 12 12 11 10 10 9 9 9 9 9 8 8 8 9 9 9 9 9 9 10 11 11 12 12 13 13 12 11 10 10 10 10
Wind_Direction
258 257 254 250 249 251 252 247 244 239 235 234 247 257 259 255 249 245 242 238 235 234 232 230 226 224 223 225 228 234 242 250 253 252 249 249 253 258 263 267 271 274 277 280 283 286 288 290 292 293 292 290 286 281 277 277 277 278 280 283 284 285 285 285 285 285 286 287 285
251 252 248 237 228 230 241 247 242 240 243 250 261 265 261 255 248 244 242 241 238 237 236 234 229 227 229 234 239 244 247 249 248 246 246 250 256 263 268 272 276 279 282 285 288 290 291 292 292 292 292 288 283 277 276 279 283 286 289 290 289 289 288 289 288 288 289 290 290
241 244 241 233 223 221 231 246 242 242 249 258 263 263 260 255 250 246 243 241 238 236 236 236 236 237 240 244 246 246 244 243 243 245 250 256 263 268 273 277 281 284 286 289 291 292 293 293 293 293 291 287 283 282 284 289 293 297 298 298 296 294 292 291 289 289 290 291 292
239 241 240 235 232 231 234 239 242 246 250 253 256 255 253 252 250 247 243 239 236 235 237 241 244 243 241 239 239 239 240 241 243 248 255 262 268 273 277 280 283 286 288 291 293 294 295 294 294 293 291 289 290 292 295 299 302 304 304 304 302 299 296 294 292 291 290 290 292
239 241 242 241 241 241 241 240 240 241 241 241 245 244 239 237 236 236 235 235 234 235 237 238 238 235 232 231 232 235 240 244 249 254 260 266 271 275 278 281 284 286 289 291 293 294 295 295 295 294 295 297 299 301 303 304 305 305 304 304 303 300 297 295 294 293 291 291 292
239 240 242 243 244 243 241 240 240 240 240 238 236 233 230 227 224 224 224 225 227 229 229 228 226 225 227 231 236 241 245 250 255 260 265 269 273 276 279 281 284 286 288 290 292 293 293 293 294 296 299 304 307 307 305 304 302 301 299 297 296 295 294 294 293 292 292 292 293
240 240 240 240 240 238 236 234 233 233 233 231 229 226 223 220 218 217 217 219 220 220 219 219 221 226 233 239 244 248 253 257 261 265 268 271 273 276 278 281 284 286 287 289 290 290 290 290 292 296 300 304 306 305 302 300 297 294 291 290 290 290 291 291 290 290 291 294 296
242 241 239 238 236 234 231 228 225 222 221 220 219 218 218 218 218 219 221 223 223 224 226 229 233 238 243 247 252 256 260 263 266 269 271 272 274 276 279 282 284 285 285 286 286 287 288 290 293 296 299 302 302 302 300 298 295 292 288 287 287 287 288 288 288 288 291 295 297
241 239 238 236 234 231 228 225 221 217 214 214 214 216 219 223 227 232 235 236 238 239 241 243 245 248 252 255 259 262 265 268 269 271 272 273 275 278 280 282 283 282 282 283 284 286 288 291 294 297 299 300 301 302 301 301 300 297 293 291 290 291 290 290 290 291 293 297 302
240 237 234 232 230 229 226 223 220 217 215 214 216 218 222 226 231 236 240 243 245 247 248 249 252 254 257 260 263 266 268 270 271 272 273 274 275 277 279 280 278 277 277 280 283 286 288 291 294 296 298 300 300 301 302 303 304 301 297 293 292 293 294 295 295 296 299 303 309
240 237 233 230 229 227 225 221 219 218 217 217 218 220 223 226 229 233 238 243 245 247 249 252 254 257 259 261 264 267 269 270 271 271 272 273 274 274 274 272 271 272 274 278 281 283 286 289 291 294 296 298 298 298 299 301 303 302 299 295 293 291 291 293 295 297 301 306 311
240 237 234 231 229 227 225 222 220 219 218 217 218 220 222 224 226 229 234 239 241 244 248 251 254 256 258 261 263 265 267 268 269 269 269 269 268 267 265 264 266 269 273 276 277 279 281 284 288 290 291 292 292 292 293 295 298 301 302 300 296 290 286 287 291 294 297 301 307
238 235 233 231 228 227 225 223 222 221 219 218 217 217 218 220 222 226 230 234 238 242 246 249 252 255 258 261 263 264 265 266 266 265 264 262 260 259 259 261 266 270 273 274 273 274 277 281 283 283 282 283 284 287 289 292 296 299 303 305 306 303 298 292 292 292 291 293 300
238 236 234 232 229 227 225 224 223 223 221 220 218 217 216 215 218 223 228 232 236 240 244 249 252 255 258 260 262 263 262 261 259 257 255 253 253 254 257 262 267 270 271 270 269 271 273 276 276 275 274 276 281 285 289 293 297 301 305 310 314 317 316 310 302 296 291 289 291
239 237 236 233 230 228 226 226 226 226 225 223 221 219 216 214 216 221 227 231 236 240 245 249 252 255 257 258 258 257 254 250 247 245 245 246 249 253 257 262 266 268 267 265 264 266 268 268 267 267 269 274 280 286 292 297 302 306 311 314 317 319 319 315 309 302 296 291 289
240 238 236 234 231 229 229 228 228 227 225 223 222 221 220 218 220 224 228 232 237 242 246 249 252 254 255 254 251 247 242 238 237 238 241 244 248 252 257 260 263 262 261 259 259 260 261 259 258 260 264 270 277 285 292 298 304 310 313 316 316 316 315 313 309 306 302 299 296
240 238 236 233 230 229 229 228 227 225 223 223 224 225 225 226 227 229 232 236 240 244 247 249 252 253 251 247 243 238 234 232 234 237 240 244 248 251 254 256 256 256 256 257 259 259 257 254 252 253 258 264 271 279 287 294 302 308 311 313 313 313 312 311 308 305 302 301 301
240 237 235 231 229 228 228 227 227 226 226 227 230 232 233 232 232 234 237 240 243 245 248 250 251 249 245 239 235 231 230 232 234 237 241 244 247 248 249 250 250 252 255 260 261 260 257 253 249 248 252 260 267 275 284 293 300 305 308 309 309 310 309 309 306 301 296 294 296
239 236 233 230 228 228 229 230 231 232 234 236 238 238 238 237 237 238 240 242 244 246 247 248 247 244 240 234 230 229 229 231 234 237 240 243 245 246 246 247 249 252 256 258 259 257 254 250 249 250 254 263 271 279 287 294 299 302 303 304 304 304 304 303 300 294 288 285 286
241 236 233 231 230 230 232 235 237 238 239 241 241 241 241 240 241 241 242 243 245 247 248 247 244 240 235 231 229 229 230 232 235 237 240 242 243 245 246 247 249 252 253 252 251 249 248 248 250 255 262 269 277 283 288 292 296 298 300 300 299 297 295 294 291 287 282 280 280
242 239 236 234 233 234 236 238 240 240 240 241 241 241 241 241 242 242 242 244 246 248 248 247 243 238 233 231 230 230 233 235 237 239 241 243 246 249 250 250 251 251 251 249 248 247 249 252 258 264 270 275 280 284 288 292 295 297 297 296 292 289 287 287 286 284 282 281 281
244 241 238 236 235 236 237 238 239 238 238 238 239 240 240 240 240 240 242 244 246 248 249 247 243 238 235 233 234 235 237 240 241 242 243 245 249 252 254 255 255 255 254 252 252 254 257 262 267 273 278 282 285 288 291 294 295 295 294 290 285 282 281 283 285 285 283 283 282
245 241 238 236 236 236 236 236 235 235 235 236 237 238 239 238 238 238 240 242 245 247 249 247 243 239 237 237 238 240 241 242 242 243 243 245 249 253 257 258 259 259 258 258 259 262 266 271 276 280 284 287 290 291 292 293 292 290 286 281 276 274 276 281 285 286 284 282 280
245 240 237 235 234 234 233 232 232 232 233 234 235 236 237 236 236 236 237 240 244 247 248 246 242 237 236 237 240 242 243 242 242 242 243 246 249 254 257 259 260 259 259 261 264 268 273 278 283 286 289 291 291 291 291 290 287 283 276 270 267 268 272 278 282 283 282 279 277
244 239 237 235 233 232 231 230 230 230 231 233 234 235 235 234 234 235 236 239 243 247 248 246 240 234 232 235 239 243 244 244 244 245 247 250 254 257 260 261 261 262 263 266 271 276 280 283 286 289 291 291 290 290 289 287 282 274 266 262 261 263 268 275 279 280 278 276 275
245 241 237 235 233 231 230 229 229 230 231 232 233 233 233 233 234 235 237 240 243 247 249 246 239 233 231 233 237 241 244 246 247 249 251 254 258 261 264 266 267 268 270 274 278 281 283 284 286 287 287 286 284 283 283 281 276 268 261 257 257 259 264 270 276 277 275 272 271
246 242 238 236 233 231 229 229 229 230 230 231 232 232 232 233 234 235 237 240 244 248 250 246 238 231 230 233 237 241 244 247 250 252 254 257 260 263 265 267 268 271 274 277 280 282 283 284 284 284 282 279 277 275 275 274 271 266 261 257 255 257 262 267 271 273 272 269 268
244 242 240 237 233 231 230 229 229 229 230 231 232 232 232 232 233 235 237 240 244 247 248 244 237 232 231 235 239 243 247 250 253 256 259 262 264 265 267 269 271 274 277 280 282 283 284 284 283 281 278 274 271 269 266 263 261 261 260 258 258 260 264 268 271 271 270 268 265
244 242 239 236 233 231 230 229 229 229 231 232 232 231 231 231 233 235 237 240 243 244 244 242 239 236 235 238 241 245 248 252 255 259 262 265 268 270 273 275 278 280 282 283 284 284 283 282 281 278 273 269 268 266 261 253 248 248 252 256 259 262 265 268 269 270 268 265 259
245 241 238 236 234 232 230 229 230 231 232 232 231 230 230 231 233 235 237 239 241 243 244 246 243 240 238 240 243 246 249 252 255 258 262 266 270 273 276 278 281 282 283 283 282 281 279 278 276 272 268 266 267 267 261 250 241 239 243 250 256 260 263 265 267 266 263 258 251
244 241 238 236 234 232 231 231 231 231 231 231 230 229 230 231 233 235 237 239 241 243 245 246 243 240 240 241 243 245 248 251 254 258 262 266 270 273 275 277 278 279 279 278 277 275 274 273 272 268 264 264 266 267 262 251 239 235 240 248 255 260 263 264 263 260 256 249 241
243 240 238 235 234 232 232 231 231 231 231 230 230 230 230 232 234 236 238 240 240 240 240 240 239 239 239 241 243 245 248 252 255 258 262 265 268 270 271 272 273 273 274 274 273 273 272 271 270 264 259 261 264 266 261 248 236 233 239 249 257 261 263 263 258 253 247 239 233
242 240 237 235 234 233 232 231 231 231 230 230 230 230 231 232 234 235 236 236 236 236 236 238 239 239 240 241 244 247 251 254 256 258 260 262 263 264 264 264 264 267 272 274 275 274 274 272 267 259 253 259 265 266 258 241 231 231 240 252 260 263 263 260 254 246 237 229 226
241 239 237 235 234 233 232 231 231 231 230 229 229 230 231 231 232 232 233 233 233 234 237 240 242 244 245 246 247 249 252 254 255 256 256 257 257 256 255 256 259 266 273 276 276 274 272 268 261 253 252 256 259 256 247 233 227 230 243 255 263 265 262 255 245 234 224 219 221
240 238 236 235 234 233 232 231 231 230 229 228 228 229 230 231 231 232 232 232 231 232 235 239 243 245 246 247 247 248 249 250 251 251 251 251 250 250 252 255 260 266 272 274 273 270 266 260 253 248 248 250 250 245 237 227 226 233 247 257 262 261 254 244 231 218 209 208 216
240 238 236 234 233 232 231 231 230 229 228 228 228 229 229 230 231 232 232 231 231 230 232 235 238 240 240 240 241 242 244 246 248 248 246 245 246 249 253 257 261 264 267 269 267 264 259 251 242 236 236 242 242 237 229 224 228 237 248 256 257 252 242 230 215 203 197 201 210
240 238 236 234 233 232 231 230 229 228 228 228 228 229 229 229 230 230 230 229 228 229 231 233 235 235 235 235 237 240 244 247 247 246 244 243 244 248 252 256 259 261 262 261 261 257 248 236 229 231 235 237 235 228 223 223 230 238 245 249 246 239 229 217 205 197 194 200 207
239 238 236 234 232 231 230 229 228 227 227 227 228 229 230 230 229 229 228 228 227 229 231 234 235 236 236 236 237 241 245 247 247 246 245 244 244 246 250 253 256 256 255 252 251 241 231 226 227 230 232 229 224 221 221 225 231 236 239 239 234 227 219 210 201 196 196 202 207
239 237 236 233 232 231 230 229 228 228 229 228 229 229 230 230 229 229 230 230 230 232 234 237 239 240 239 238 238 240 243 245 246 246 246 246 245 244 246 249 250 249 246 241 233 224 221 222 225 227 226 221 220 222 226 231 233 233 233 231 226 220 214 208 203 199 199 203 207
238 237 235 233 231 231 230 230 231 232 232 231 231 232 232 232 232 232 232 232 233 234 237 240 244 245 243 240 237 237 239 242 245 246 246 246 243 242 241 242 242 241 237 231 222 218 219 224 228 230 229 228 230 233 234 234 232 230 228 225 221 216 212 209 206 203 203 205 208
236 234 233 232 231 231 231 232 234 235 236 236 236 237 238 238 236 235 234 233 233 233 236 241 245 246 244 239 236 236 237 240 243 245 246 244 241 237 235 235 235 234 232 228 222 219 221 227 232 236 239 241 243 242 239 234 229 226 224 222 219 216 212 210 209 208 208 208 209